Weather History for Statesboro, GA

Change the Weather History Date:

Friday, November 16, 2012

  Actual Average (KSAV) Record (KSAV)
Temperature  
Mean Temperature 47 °F 59 °F  
Max Temperature 55 °F 71 °F 85 °F (1958)
Min Temperature 37 °F 48 °F 25 °F (1969)
Degree Days  
Heating Degree Days 18 7  
Month to date heating degree days 87  
Since 1 July heating degree days 144  
Cooling Degree Days 0 1  
Month to date cooling degree days 26  
Year to date cooling degree days 2438  
Moisture  
Dew Point 46 °F    
Average Humidity 93    
Maximum Humidity 100    
Minimum Humidity 72    
Precipitation  
Precipitation 0.00 in 0.08 in 1.38 in (2002)
Month to date precipitation 1.25  
Year to date precipitation 43.89  
Sea Level Pressure  
Sea Level Pressure 30.26 in    
Wind  
Wind Speed 5 mph (NNE)    
Max Wind Speed 9 mph    
Max Gust Speed -    
Visibility 9 miles    
Events Fog    
T = Trace of Precipitation, MM = Missing Value Source: NWS Daily Summary

Daily Weather History Graph

Daily Weather History Graph

Search for Another Location

Airport:

Trip Planner

Search our weather history database for the weather conditions in past years. The results will help you decide how hot, cold, wet, or windy it might be!

Date:

Astronomy

Nov. 16, 2012 Rise Set
Actual Time 6:57 AM EST 5:25 PM EST
Civil Twilight 6:31 AM EST 5:51 PM EST
Nautical Twilight 6:01 AM EST 6:21 PM EST
Astronomical Twilight 5:32 AM EST 6:50 PM EST
Moon 9:48 AM EST (11/16) 8:25 PM EST (11/16)
Length of Visible Light 11h 19m
Length of Day
10h 27m
Waxing Crescent, 11% of the Moon is Illuminated
Nov 16
Waxing Crescent
Nov 20
First Quarter
Nov 28
Full
Dec 6
Last Quarter
Dec 13
New

Hourly Weather History & Observations

Time (EST) Temp. Windchill Dew Point Humidity Pressure Visibility Wind Dir Wind Speed Gust Speed Precip Events Conditions
12:15 AM 48.2 °F - 48.2 °F 100% 30.23 in 10.0 mi North 5.8 mph - N/A   Overcast
12:35 AM 48.2 °F - 48.2 °F 100% 30.23 in 10.0 mi NNE 4.6 mph - N/A   Overcast
12:55 AM 48.2 °F - 48.2 °F 100% 30.23 in 10.0 mi NNE 6.9 mph - N/A   Overcast
1:15 AM 48.2 °F - 48.2 °F 100% 30.23 in 10.0 mi NE 6.9 mph - N/A   Overcast
1:35 AM 48.2 °F - 48.2 °F 100% 30.23 in 10.0 mi NNE 9.2 mph - N/A   Overcast
1:55 AM 48.2 °F - 48.2 °F 100% 30.23 in 10.0 mi NNE 5.8 mph - N/A   Overcast
2:15 AM 48.2 °F - 48.2 °F 100% 30.24 in 10.0 mi NNE 6.9 mph - N/A   Overcast
2:35 AM 46.4 °F 41.9 °F 46.4 °F 100% 30.24 in 10.0 mi NNE 9.2 mph - N/A   Overcast
2:55 AM 46.4 °F 44.3 °F 46.4 °F 100% 30.24 in 10.0 mi NNE 4.6 mph - N/A   Overcast
3:15 AM 46.4 °F - 46.4 °F 100% 30.24 in 7.0 mi Calm Calm - N/A   Overcast
3:35 AM 46.4 °F 44.3 °F 46.4 °F 100% 30.23 in 5.0 mi NNE 4.6 mph - N/A   Overcast
3:55 AM 46.4 °F 42.9 °F 46.4 °F 100% 30.23 in 4.0 mi North 6.9 mph - N/A   Overcast
4:15 AM 46.4 °F 43.5 °F 46.4 °F 100% 30.23 in 5.0 mi NNE 5.8 mph - N/A   Overcast
4:35 AM 46.4 °F 44.3 °F 46.4 °F 100% 30.23 in 7.0 mi North 4.6 mph - N/A   Overcast
4:55 AM 46.4 °F 43.5 °F 46.4 °F 100% 30.23 in 7.0 mi North 5.8 mph - N/A   Overcast
5:15 AM 46.4 °F 43.5 °F 46.4 °F 100% 30.23 in 10.0 mi North 5.8 mph - N/A   Overcast
5:35 AM 46.4 °F 43.5 °F 46.4 °F 100% 30.23 in 10.0 mi NNE 5.8 mph - N/A   Overcast
5:55 AM 46.4 °F 43.5 °F 46.4 °F 100% 30.24 in 10.0 mi NNE 5.8 mph - N/A   Overcast
6:15 AM 46.4 °F 42.9 °F 46.4 °F 100% 30.24 in 10.0 mi NNE 6.9 mph - N/A   Overcast
6:35 AM 46.4 °F 44.3 °F 46.4 °F 100% 30.25 in 10.0 mi NNE 4.6 mph - N/A   Overcast
6:55 AM 46.4 °F 44.3 °F 46.4 °F 100% 30.26 in 10.0 mi NNE 4.6 mph - N/A   Overcast
7:15 AM 46.4 °F 42.9 °F 46.4 °F 100% 30.26 in 10.0 mi NNE 6.9 mph - N/A   Overcast
7:35 AM 46.4 °F 42.9 °F 46.4 °F 100% 30.26 in 10.0 mi NNE 6.9 mph - N/A   Overcast
7:55 AM 46.4 °F 42.9 °F 46.4 °F 100% 30.26 in 10.0 mi NNE 6.9 mph - N/A   Overcast
8:15 AM 46.4 °F 44.3 °F 46.4 °F 100% 30.27 in 10.0 mi NE 4.6 mph - N/A   Overcast
8:35 AM 48.2 °F - 46.4 °F 93% 30.28 in 10.0 mi NE 3.5 mph - N/A   Overcast
8:55 AM 48.2 °F - 46.4 °F 93% 30.28 in 10.0 mi NE 5.8 mph - N/A   Overcast
9:15 AM 50.0 °F - 48.2 °F 94% 30.28 in 10.0 mi NNE 5.8 mph - N/A   Overcast
9:35 AM 50.0 °F - 48.2 °F 94% 30.29 in 10.0 mi NNE 6.9 mph - N/A   Overcast
9:55 AM 50.0 °F - 48.2 °F 94% 30.29 in 10.0 mi NNE 5.8 mph - N/A   Overcast
10:15 AM 51.8 °F - 48.2 °F 88% 30.29 in 10.0 mi NNE 8.1 mph - N/A   Overcast
10:35 AM 51.8 °F - 48.2 °F 88% 30.29 in 10.0 mi NE 4.6 mph - N/A   Overcast
10:55 AM 51.8 °F - 48.2 °F 88% 30.29 in 10.0 mi North 5.8 mph - N/A   Overcast
11:15 AM 51.8 °F - 48.2 °F 88% 30.29 in 10.0 mi NNE 6.9 mph - N/A   Overcast
11:35 AM 51.8 °F - 46.4 °F 82% 30.28 in 10.0 mi NNE 5.8 mph - N/A   Overcast
11:55 AM 53.6 °F - 46.4 °F 77% 30.28 in 10.0 mi NNE 5.8 mph - N/A   Overcast
12:15 PM 53.6 °F - 46.4 °F 77% 30.28 in 10.0 mi North 8.1 mph - N/A   Overcast
12:35 PM 53.6 °F - 44.6 °F 72% 30.27 in 10.0 mi NNE 8.1 mph - N/A   Overcast
12:55 PM 53.6 °F - 44.6 °F 72% 30.27 in 10.0 mi NNE 5.8 mph - N/A   Overcast
1:15 PM 53.6 °F - 46.4 °F 77% 30.26 in 10.0 mi NNE 6.9 mph - N/A   Overcast
1:35 PM 53.6 °F - 46.4 °F 77% 30.26 in 10.0 mi NNE 4.6 mph - N/A   Overcast
1:55 PM 53.6 °F - 46.4 °F 77% 30.26 in 10.0 mi NNW 5.8 mph - N/A   Overcast
2:15 PM 53.6 °F - 46.4 °F 77% 30.25 in 10.0 mi North 5.8 mph - N/A   Overcast
2:35 PM 53.6 °F - 46.4 °F 77% 30.25 in 10.0 mi NNE 4.6 mph - N/A   Overcast
2:55 PM 55.4 °F - 46.4 °F 72% 30.24 in 10.0 mi NNE 3.5 mph - N/A   Overcast
3:15 PM 55.4 °F - 46.4 °F 72% 30.24 in 10.0 mi NNE 3.5 mph - N/A   Overcast
3:35 PM 53.6 °F - 46.4 °F 77% 30.24 in 10.0 mi Calm Calm - N/A   Overcast
3:55 PM 55.4 °F - 46.4 °F 72% 30.24 in 10.0 mi Calm Calm - N/A   Overcast
4:15 PM 55.4 °F - 46.4 °F 72% 30.24 in 10.0 mi Calm Calm - N/A   Scattered Clouds
4:35 PM 55.4 °F - 46.4 °F 72% 30.24 in 10.0 mi ENE 3.5 mph - N/A   Mostly Cloudy
4:55 PM 53.6 °F - 46.4 °F 77% 30.24 in 10.0 mi East 3.5 mph - N/A   Scattered Clouds
5:15 PM 51.8 °F - 46.4 °F 82% 30.25 in 10.0 mi Calm Calm - N/A   Clear
5:35 PM 50.0 °F - 46.4 °F 87% 30.25 in 10.0 mi Calm Calm - N/A   Clear
5:55 PM 50.0 °F - 50.0 °F 100% 30.26 in 10.0 mi Calm Calm - N/A   Clear
6:15 PM 48.2 °F - 48.2 °F 100% 30.26 in 10.0 mi Calm Calm - N/A   Clear
6:35 PM 46.4 °F - 46.4 °F 100% 30.27 in 10.0 mi Calm Calm - N/A   Clear
6:55 PM 44.6 °F - 44.6 °F 100% 30.28 in 10.0 mi Calm Calm - N/A   Scattered Clouds
7:15 PM 42.8 °F - 42.8 °F 100% 30.27 in 0.5 mi Calm Calm - N/A Fog Fog
7:35 PM 42.8 °F - 42.8 °F 100% 30.28 in 4.0 mi Calm Calm - N/A   Clear
7:55 PM 42.8 °F - 42.8 °F 100% 30.28 in 10.0 mi Calm Calm - N/A   Clear
8:15 PM 41.0 °F - 41.0 °F 100% 30.29 in 0.2 mi Calm Calm - N/A Fog Fog
8:35 PM 41.0 °F - 41.0 °F 100% 30.29 in 10.0 mi Calm Calm - N/A   Clear
8:55 PM 41.0 °F - 41.0 °F 100% 30.30 in 1.2 mi Calm Calm - N/A   Mist
9:15 PM 39.2 °F - 39.2 °F 100% 30.30 in 1.2 mi Calm Calm - N/A   Mist
9:35 PM 39.2 °F - 39.2 °F 100% 30.30 in 2.5 mi Calm Calm - N/A   Clear
9:55 PM 41.0 °F - 41.0 °F 100% 30.30 in 10.0 mi Calm Calm - N/A   Clear
10:15 PM 41.0 °F - 41.0 °F 100% 30.30 in 4.0 mi Calm Calm - N/A   Clear
10:35 PM 41.0 °F - 41.0 °F 100% 30.30 in 7.0 mi Calm Calm - N/A   Clear
10:55 PM 39.2 °F - 39.2 °F 100% 30.30 in 10.0 mi Calm Calm - N/A   Clear
11:15 PM 39.2 °F - 39.2 °F 100% 30.30 in 7.0 mi Calm Calm - N/A   Clear
11:35 PM 39.2 °F - 39.2 °F 100% 30.30 in 10.0 mi Calm Calm - N/A   Clear
11:55 PM 37.4 °F - 37.4 °F 100% 30.30 in 7.0 mi Calm Calm - N/A   Clear